HAKNR LSZB-LIRJ

Flight info

Callsign HAKNR
Flight time N/A
Altitude 23000
Route MONIN Z119 SOSON N850 ODINA DCT UPDIN DCT ELB
Aircraft B350/L-BGRS/C

Departure

Time 2026-04-19 08:13
Airport Bern Airport (LSZB)

Arrival

Time N/A
Airport Marina di Campo Airport (LIRJ)
Time Latitude Longitude Altitude Speed Heading
2026-04-19 07:41 46.91308 7.50092 1676 ft 0 kts 86°
2026-04-19 08:08 46.91300 7.50103 1676 ft 5 kts 179°
2026-04-19 08:08 46.91281 7.50021 1704 ft 13 kts 295°
2026-04-19 08:08 46.91370 7.49912 1682 ft 15 kts 320°
2026-04-19 08:08 46.91461 7.49805 1676 ft 19 kts 324°
2026-04-19 08:09 46.91515 7.49738 1676 ft 0 kts 321°
2026-04-19 08:09 46.91516 7.49737 1676 ft 1 kts 321°
2026-04-19 08:09 46.91525 7.49687 1676 ft 11 kts 242°
2026-04-19 08:10 46.91515 7.49585 1676 ft 13 kts 323°
2026-04-19 08:10 46.91603 7.49482 1684 ft 19 kts 320°
2026-04-19 08:10 46.91726 7.49333 1681 ft 26 kts 320°
2026-04-19 08:10 46.91849 7.49184 1679 ft 22 kts 323°
2026-04-19 08:11 46.91923 7.49083 1675 ft 12 kts 300°
2026-04-19 08:11 46.91947 7.49067 1673 ft 9 kts 157°
2026-04-19 08:11 46.91936 7.49078 1677 ft 0 kts 139°
2026-04-19 08:12 46.91771 7.49278 1682 ft 67 kts 140°
2026-04-19 08:12 46.91240 7.49929 1753 ft 122 kts 140°
2026-04-19 08:12 46.90544 7.50803 2224 ft 143 kts 138°
2026-04-19 08:13 46.89828 7.51817 2871 ft 142 kts 132°
2026-04-19 08:13 46.89194 7.52926 3545 ft 144 kts 126°
2026-04-19 08:13 46.88819 7.54280 4219 ft 147 kts 95°
2026-04-19 08:13 46.88928 7.55790 4827 ft 157 kts 71°
2026-04-19 08:14 46.89531 7.57188 5292 ft 173 kts 36°
2026-04-19 08:14 46.91957 7.57819 6463 ft 185 kts
2026-04-19 08:14 46.93308 7.57915 6542 ft 220 kts 358°
2026-04-19 08:15 46.94978 7.57988 6241 ft 246 kts 358°
2026-04-19 08:15 46.96673 7.58057 6493 ft 242 kts 358°
2026-04-19 08:15 46.98370 7.58122 6599 ft 245 kts 358°
2026-04-19 08:15 47.00079 7.58187 6653 ft 247 kts 358°